Tracking 35331 objects as of 17-Sep-2026
HD Live streaming from Space Station
objects crossing your sky now

STARLINK-4013

Track STARLINK-4013 now!
10-day predictions
STARLINK-4013 is classified as:


NORAD ID: 52604
Int'l Code: 2022-052G
Launch date: May 14, 2022
Source: United States (US)
Launch site: AIR FORCE EASTERN TEST RANGE (AFETR)
Your satellite tracking list
Your tracking list is empty




NASA's NSSDC Master Catalog

Two Line Element Set (TLE):
1 52604U 22052G   26259.09992304 -.00003215  00000-0 -81257-4 0  9998
2 52604  53.1619 136.0307 0001119 117.5837 242.5280 15.35410879239716
Source of the keplerian elements: AFSPC